Weather in Buchalki

Russia / Tula Oblast     53°45′21″N   38°46′26″E
temp.,
°C
wind,
m/s
gust,
m/s
humid.,
%
clouds,
%
prec.,
mm/h
press.,
hPa
HPBL,
m
16 may, sun
sun1600:00+14ssw39870 0.0 1012177
03:00+12ssw36922 0.0 101399
06:00+13ssw248899 0.0 1013107
09:00+19ssw34702 0.0 1014482
12:00+22ssw34555 0.0 10141415
15:00+22ssw355797 0.0 10141327
18:00+22sw236417 0.0 1013145
21:00+17ne117222 0.0 101411
17 may, mon
mon1700:00+15e33755 0.0 101425
03:00+14e477816 0.0 1014109
06:00+15ene4109193 1.4 1014221
09:00+20e687537 1.4 1013393
12:00+24ese6860100 0.0 1012740
15:00+25ese68561 0.0 1011990
18:00+23ese612675 0.0 1011533
21:00+19ese61579100 0.0 1011346
18 may, tue
tue1800:00+18se617695 0.0 1010405
03:00+16se516664 0.0 1010367
06:00+15se5147392 0.0 1010283
09:00+20se6126193 0.0 1010476
12:00+24se6104967 0.0 1010767
15:00+26ese6105391 0.0 10091248
18:00+23ese71464100 0.0 1008543
21:00+19ese5147782 0.0 1007333
19 may, wed
wed1900:00+18ese6176998 0.0 1006417
03:00+16ese615633 0.0 1006324
06:00+15ese4976100 0.0 1006194
09:00+19ese577186 0.0 1006434
12:00+22se576455 0.0 10051262
15:00+15sse612915 18.4 1006566
18:00+18sse6980100 0.4 10061018
21:00+14sse38925 0.7 1006186
20 may, thu
thu2000:00+13se3792100 0.1 1006162
03:00+12sse38945 0.4 1005219
06:00+11sse599534 0.1 1005418
09:00+12sse6109174 0.6 1006745
12:00+14ssw7108575 1.7 1006924
15:00+11ssw71189100 2.6 1008764
18:00+11sw71289100 0.1 1010833
21:00+11sw7128894 0.3 1010885